EST,Max TemperatureF,Mean TemperatureF,Min TemperatureF,Max Dew PointF,MeanDew PointF,Min DewpointF,Max Humidity, Mean Humidity, Min Humidity, Max Sea Level PressureIn, Mean Sea Level PressureIn, Min Sea Level PressureIn, Max VisibilityMiles, Mean VisibilityMiles, Min VisibilityMiles, Max Wind SpeedMPH, Mean Wind SpeedMPH, Max Gust SpeedMPH,PrecipitationIn, CloudCover, Events, WindDirDegrees
2012-11-1,53,44,36,40,36,33,99,70,50,29.78,29.72,29.68,10,10,10,10,2,,0.00,5,Rain,285
2012-11-2,55,44,33,38,31,27,99,63,36,29.96,29.83,29.78,10,10,10,18,6,29,0.00,6,,295
2012-11-3,50,44,37,33,29,27,83,52,45,30.11,30.04,29.96,10,10,10,17,11,30,0.00,8,,299
2012-11-4,52,42,31,34,30,27,96,71,39,30.12,30.09,30.03,10,10,10,10,2,18,0.00,2,,310
2012-11-5,50,40,31,32,27,24,92,59,38,30.21,30.12,30.07,10,10,10,13,4,20,0.00,3,,317
2012-11-6,46,36,27,30,27,23,94,65,40,30.25,30.15,30.04,10,10,10,6,1,,0.00,2,,80
2012-11-7,44,42,39,30,27,25,67,56,49,30.00,29.94,29.91,10,10,10,12,5,18,0.00,4,Rain,330
2012-11-8,55,48,40,28,17,5,56,33,13,30.07,29.98,29.91,10,10,10,24,13,33,0.00,2,Rain,310
2012-11-9,57,46,35,35,31,29,93,61,36,30.25,30.20,30.08,10,10,10,17,7,23,0.00,0,,311
2012-11-10,65,48,32,40,35,31,100,82,32,30.39,30.31,30.25,10,9,4,8,0,,0.00,0,,130
2012-11-11,70,52,35,43,39,35,100,81,35,30.48,30.42,30.38,10,9,6,7,1,,0.00,0,,159
2012-11-12,71,56,40,58,47,39,100,83,53,30.43,30.35,30.18,10,9,4,9,2,,0.01,1,,134
2012-11-13,55,47,38,52,38,24,93,78,42,30.51,30.36,30.20,10,8,2,21,10,30,0.18,6,Rain,331
2012-11-14,47,39,31,30,26,24,92,64,40,30.58,30.51,30.46,10,10,10,8,4,,0.00,0,,331
2012-11-15,50,42,33,35,32,29,89,66,51,30.44,30.37,30.32,10,10,10,5,2,,0.00,7,,311
2012-11-16,54,45,34,35,30,26,83,60,35,30.46,30.37,30.31,10,10,10,7,2,,0.00,2,,313
2012-11-17,54,43,32,31,27,21,85,58,27,30.61,30.57,30.48,10,10,10,7,3,,0.00,0,,343
2012-11-18,53,46,38,38,36,32,83,68,53,30.62,30.57,30.52,10,10,10,10,3,,0.00,1,,16
2012-11-19,54,48,42,39,37,34,74,63,54,30.49,30.38,30.25,10,10,9,9,4,,0.00,7,,349
2012-11-20,55,47,38,42,38,34,100,72,55,30.22,30.17,30.11,10,10,9,6,3,,0.03,5,,305
2012-11-21,58,45,31,39,33,24,100,81,27,30.24,30.19,30.15,10,8,2,8,0,,0.00,1,,340
2012-11-22,59,44,28,33,28,24,95,67,27,30.30,30.23,30.18,10,10,9,7,1,,0.00,0,,355
2012-11-23,61,44,27,38,31,25,96,63,32,30.16,29.95,29.79,10,10,10,24,2,31,0.00,2,,268
2012-11-24,46,41,35,26,18,15,45,42,35,30.09,29.98,29.86,10,10,10,25,16,33,0.00,3,,303
2012-11-25,43,35,25,22,19,16,84,56,34,30.12,30.04,29.98,10,10,10,9,4,,0.00,2,,245
2012-11-26,55,40,25,31,26,22,86,61,29,30.23,30.16,30.03,10,10,10,7,1,,0.00,3,,136
2012-11-27,43,38,34,41,37,32,93,84,66,30.29,30.22,30.18,10,10,5,10,3,,0.01,6,Rain,327
2012-11-28,48,38,27,32,25,19,84,59,32,30.41,30.32,30.27,10,10,10,13,4,,0.00,3,,315
2012-11-29,49,36,23,28,23,21,92,67,33,30.49,30.41,30.37,10,10,10,6,1,,0.00,0,,206
2012-11-30,53,39,25,31,27,24,94,74,37,30.39,30.36,30.32,10,10,10,6,0,,0.00,1,,120